"Pseudo-MPEC" for C3D1941

Created 2022 Nov 25 13:22:10 UT using Find_Orb

Click here for an explanation of pseudo-MPECs

 
 Astrometry: 
     C3D1941*1C2022 11 24.51046712 35 00.272+26 30 12.31   ~BOD7x      VNEOCP703
     C3D1941 1C2022 11 24.51579112 34 40.904+26 39 05.80   ~BOD7x      VNEOCP703
     C3D1941 1C2022 11 24.52111812 34 21.439+26 48 02.05   ~BOD7x16.67GVNEOCP703
     C3D1941 1C2022 11 24.52644212 34 01.952+26 56 55.93   ~BOD7x      VNEOCP703
     C3D1941 1C2022 11 24.53808112 33 19.336+27 16 09.34   ~BODMx16.35GVNEOCP703
     C3D1941 1C2022 11 24.53820412 33 18.968+27 16 21.58   ~BODMx16.30GVNEOCP703
     C3D1941 1C2022 11 24.53832612 33 18.414+27 16 34.07   ~BODMx16.07GVNEOCP703
     C3D1941 1C2022 11 24.53844912 33 18.032+27 16 46.02   ~BODMx16.19GVNEOCP703
     C3D1941 KC2022 11 24cry,tB+CJKF:Pj`SN]-a5FZ;4D3xnvpH(jj3gn_g.9=SSJ[jWC%#900
     C3D1941 KC2022 11 24Wvrk@,Ci(m7e7[x$O7l7*cD^4(k#.oZ*gJMI9V=*ATes3neY`oB*900
     C3D1941 KC2022 11 24-0063xKn(8N,fwvn*q#Jjj/#$Yy/@0sV2-.]U6O)woZwE)'`QaPJ900
     C3D1941 KC2022 11 24p-(O,7p1(r5?'%IdDS'[ZgfAq68$sA107'urdGa)NfR8CK7vCr1#900
     C3D1941 KC2022 11 24`xEWh76a2GL$(!vlI]vw#(jF-[CPST.9,-KODaj0b4j0]gG3KobK900
     C3D1941 KC2022 11 25WCHaQWoDcVolT0]eryy=qdT81g166sbGq0/HgXl+5wiLZ.y4.p+rL01
     C3D1941 KC2022 11 25JD)k/@'(\OSl8!ZJH?_d)jw7C1y9pqcnUT#O6`1?9#Wo7'=VA[M$L01
     C3D1941 KC2022 11 25KJoI5ob_fL.uZ1JpK[5?9F4*(+;Ifh'klv:[EW@2]Na=:2h?G#^`L01
     C3D1941 KC2022 11 25JrkRW,UCN6i@2]!XnuDQJ+oq]]?:B%nJJL0YI^olX\PY:xU8PYwyL01
     C3D1941 KC2022 11 25Qo644P0mI%rs+(-TA!y^+3R)BjY!BXRkn@YyQL0xO;'\I_JUwUhPL01
     C3D1941 KC2022 11 25_0tepQqay8@RiGTyE*n@=(%h^Ww-\7[UVR`N9_f4l/[Fb*V-KMi*L01
     C3D1941 KC2022 11 25oMamTH)E^8!6xO)8o=*$x*@Y5Pf:$UDs]`@k.$6lk\ou@-j]7I6AL01
     C3D1941 KC2022 11 25io0t5JxDoK[/FL=Jbd@.Astrometry5)@BsX3vH/@q?:,Dl*m=f=L01
     C3D1941 KC2022 11 258sgU7.c8wF2@sj-p86c6*IZvTMmredacted;t)1fRA::^R8*X$/?L47
     C3D1941 KC2022 11 25N!\?rHh,xB3kpV]/X2IqaU]s3F9aGO%f!'/-%+@K\'9T6qg:h_UDL01
     C3D1941 KC2022 11 25B)WhvsjKx0LZ?3_KS0'i8@w(7vZ$RXF5ii1bY6;Cbu=O4h(EIK7iL47
     C3D1941 KC2022 11 25sZApnELE7p4HXG^MkH.O]P1\y6MB8FVYpKXrQ$cGleZ:#-_#VG,mL01
     C3D1941 KC2022 11 25wqOP-L(YM-ly9pc`N@0R(o/^p+mgZwO6#Ol,b?mT?,$\Gu0A+I!LL47
     C3D1941 KC2022 11 25-qBl?c8@Ac*\M8!Z=7'8HHwLxDYJ@Li*,+v#%f+HY:$m1;N#=P!\L01
     C3D1941 KC2022 11 25S6#Gl+Hx'KWykc!:vrCMgq+_!,u$_!nc0clickUaX-i^?hO\DCX`L47
     C3D1941 KC2022 11 25;!g]LrBM$here=+ry'O/66BxYZq/SFS1,Hfs_lF's$x%BKX#BnjFB72
     C3D1941 KC2022 11 25Jx=L-pr:[X=G+mQ^fV6ERaXV;J,J0pg6W]br@i?KkfW),g@,?'dOB72
     C3D1941 KC2022 11 25wdS]\#m,j)c'k5ye$jJ^GSkhswbUa7R%k5;n\G9?d@0@O$8?NwA(B72
     C3D1941 KC2022 11 25.04927412 03 45.026+39 14 03.01   ~BP1bx16.2 GVNEOCPJ95
     C3D1941 KC2022 11 25.05062112 03 40.363+39 15 42.70   ~BP1bx16.3 GVNEOCPJ95
     C3D1941 KC2022 11 25.05214212 03 35.136+39 17 35.30   ~BP1bx16.1 GVNEOCPJ95
     C3D1941 KC2022 11 25.05320612 03 31.483+39 18 54.14   ~BP1bx16.2 GVNEOCPJ95
     C3D1941 KC2022 11 25.05429412 03 27.713+39 20 14.32   ~BP1bx16.3 GVNEOCPJ95
     C3D1941 KC2022 11 25.05535612 03 24.067+39 21 32.76   ~BP1bx16.1 GVNEOCPJ95
     C3D1941 KC2022 11 25h/Ueq0/_TQHg!a,e(peED:eL7,.%odDAN$Pkc^vc,forddHp**goK74
     C3D1941 KC2022 11 25,fmFQt87(qaF(ut2@^pGVZf$+pbL?n8goDa-[i$BjtJ?o\_S,UTcK74
     C3D1941 KC2022 11 256tgAD*mdx+QGO8.e[ga%a2D0H)=/_LrOF9pkC=UvH`CRR,qgsXmZK74
     C3D1941 KC2022 11 25D7EGubV44Nc[A3eP5;Ru8*'D!n=4aRXSw%N_[bNcKc+^iJhXe@S#K74
     C3D1941 KC2022 11 25%4(?:DqMwnR%.4g6Qly\PB,K8-)=A+x#Jl!v?RjrWR`xh7jANt=ZK74
     C3D1941 KC2022 11 25l=`+$CHyNFWRmXN2es*B%DAn\ei0`-DR$^7)':(U:9b-r6@7/$Y5K74
     C3D1941  C2022 11 25.41640 11 42 35.11 +45 48 24.5    ~BPAbx16.2  rNEOCP718
     C3D1941  C2022 11 25.41689 11 42 33.36 +45 48 52.5    ~BPAbx16.1  rNEOCP718
     C3D1941  C2022 11 25.41734 11 42 31.83 +45 49 19.4    ~BPAbx16.3  rNEOCP718
     C3D1941  C2022 11 25.41778 11 42 30.22 +45 49 44.5    ~BPAbx16.0  rNEOCP718
     C3D1941  C2022 11 25.41823 11 42 28.62 +45 50 10.5    ~BPAbx16.0  rNEOCP718
     C3D1941  C2022 11 25.41868 11 42 27.05 +45 50 36.1    ~BPAbx16.0  rNEOCP718
     C3D1941  C2022 11 25.41912 11 42 25.43 +45 51 01.8    ~BPAbx16.3  rNEOCP718
     C3D1941  C2022 11 25.41957 11 42 23.94 +45 51 27.9    ~BPAbx16.4  rNEOCP718
     C3D1941  C2022 11 25.42001 11 42 22.31 +45 51 53.7    ~BPAbx16.1  rNEOCP718
     C3D1941  C2022 11 25.42046 11 42 20.75 +45 52 19.2    ~BPAbx15.9  rNEOCP718
     C3D1941 KC2022 11 25IT]_tIZ3Gf8,$u3rWC2q+@Cu:Z_mNAH1ZBk)V%+vq7Tl$LI!_t,YH36
     C3D1941 KC2022 11 25=(swAkEogGZGiK+yP6uG'Pm+q-;kmtcOG`p9_eZ,E'OKfN!V$#]TH36
     C3D1941 KC2022 11 25JC0A*gQTP'jQoPq)\p02AQ:explanationw-EL$B7FL=3WK=8M-jH36

Station data:
(703) Catalina Sky Survey  (N32.417003 W110.732640)  US/Arizona.  Observers
   T. A. Pruyne, B. M. Africano, E. J. Christensen, G. A. Farneth, D. C.
   Fuls, A. R. Gibbs, A. D. Grauer, H. Gröller, J. A. Johnson, R. A.
   Kowalski, S. M. Larson, G. J. Leonard, D. Rankin, R. L. Seaman, F. C.
   Shelly, K. W. Wierzchoś. 0.68 m Schmidt + 10K CCD.
(718) Tooele  (N40.641406 W112.295800)  US/Utah.  Observer P. Wiggins. 0.35-m
   f/5.5 Schmidt-Cassegrain + CCD.
(900) Moriyama  (N35.049753 E135.989940)  Japan.  Observer Y. Ikari. 0.26-m
   f/7.0 reflector + CCD.
(B72) Soerth  (N50.698509 E7.681100)  Germany.  Observer B. Koch. 0.36-m
   f/7.6 Schmidt-Cassegrain + CCD + f/7.6 focal reducer.
(H36) Sandlot Observatory, Scranton  (N38.797691 W95.706400)  US/Kansas.
   Observer G. Hug. 0.56-m reflector + CCD.
(J95) Great Shefford  (N51.474969 W1.447003)  UK/England.  Observer P.
   Birtwhistle. 0.41-m f/6.3 Schmidt-Cassegrain + CCD.
(K74) Muensterschwarzach Observatory, Schwarzach  (N49.805276 E10.236400)
   Germany.  Observer C. Gerhard. 0.30-m f/3.75 Newtonian reflector + CCD.
(L01) Višnjan Observatory, Tičan  (N45.290897 E13.749300)  Croatia.
   Observers K. Korlević, D. Pujagic, V. Dobos. Measurers D. Pujagic, K.
   Korlević. 1.0-m f/2.9 reflector + CCD.
(L47) Osservatorio Astronomico, Piobbico  (N43.585893 E12.507110)  Italy.
   Observers A. Teseo, A. Annamelia. 0.20-m f/6.3 Schmidt-Cassegrain + CCD.

Orbital elements:  C3D1941
   Perigee 2022 Nov 25.01273 TT =  0:18:19 (JD 2459908.51273)
Epoch 2022 Nov 25.0 TT = JDT 2459908.5                        AutoNEOCP
q  6008.51337km                     (J2000 equator)
H   29.9  G 0.15   Peri.   37.32454
                   Node    40.05825
e 425.1081581      Incl.   52.27520
2 of 56 observations 2022 Nov. 25 (40.6 sec); mean residual 1008".79
IMPACT at 25 Nov 2022 0:16:56.98 lat +13.15474 lon W17.51851
Residuals in arcseconds: 
221124 703(154d-  66d+)   221125 L01(141d+  78d+)   221125 K74(3422- 5064+)   
221124 703(154d-  66d+)   221125 L01(141d+  78d+)   221125 K74(3490- 5184+)   
221124 703(154d-  66d+)   221125 L47(3506+ 3950+)   221125 K74(3561- 5308+)   
221124 703(154d-  66d+)   221125 L01(2179+  403+)   221125 K74(3615- 5403+)   
221124 703(154d-  66d+)   221125 L47(1349+ 1281+)   221125 K74(3671- 5502+)   
221124 703(154d-  66d+)   221125 L01(1698+ 24.6+)   221125 718(243'- 414'+)   
221124 703(154d-  66d+)   221125 L47 1121+ 1045+    221125 718(243'- 415'+)   
221124 703(154d-  66d+)   221125 L01(1378+  206-)   221125 718(243'- 415'+)   
221124 900(147d-  73d+)   221125 L47  953+  892+    221125 718(244'- 415'+)   
221124 900(147d-  73d+)   221125 B72(1302+  365+)   221125 718(244'- 416'+)   
221124 900(147d-  73d+)   221125 B72( 996+  226+)   221125 718(244'- 416'+)   
221124 900(145d-  74d+)   221125 B72( 779+  157+)   221125 718(244'- 417'+)   
221124 900(145d-  74d+)   221125 J95(1115- 1472+)   221125 718(245'- 417'+)   
221125 L01(141d-  78d+)   221125 J95(1182- 1556+)   221125 718(245'- 418'+)   
221125 L01(141d-  78d+)   221125 J95(1256- 1651+)   221125 718(245'- 418'+)   
221125 L01(141d-  78d+)   221125 J95(1308- 1719+)   221125 H36(270'- 460'+)   
221125 L01(141d+  78d+)   221125 J95(1360- 1788+)   221125 H36(272'- 464'+)   
221125 L01(141d+  78d+)   221125 J95(1410- 1856+)   221125 H36(275'- 468'+)   
221125 L01(141d+  78d+)   221125 K74(3350- 4935+)   

Ephemerides (geocentric):
Date (UTC) HH   RA             Dec           delta  r     elong  mag
---- --------  ------------   ------------  ------ ------ -----  ---
2022 11 25 13  12 05 37.415   +38 55 18.25  .05129 .98094  81.5 26.8
2022 11 25 14  12 05 38.216   +38 55 10.89  .05532 .98059  81.6 26.9
2022 11 25 15  12 05 38.910   +38 55 04.52  .05935 .98025  81.6 27.1
2022 11 25 16  12 05 39.518   +38 54 58.94  .06339 .97994  81.6 27.2
2022 11 25 17  12 05 40.054   +38 54 54.01  .06742 .97964  81.7 27.3
2022 11 25 18  12 05 40.531   +38 54 49.63  .07145 .97937  81.7 27.4
2022 11 25 19  12 05 40.959   +38 54 45.70  .07549 .97912  81.7 27.5
2022 11 25 20  12 05 41.345   +38 54 42.15  .07952 .97889  81.8 27.6
2022 11 25 21  12 05 41.695   +38 54 38.93  .08355 .97869  81.8 27.7
2022 11 25 22  12 05 42.015   +38 54 35.99  .08759 .97850  81.8 27.8
2022 11 25 23  12 05 42.308   +38 54 33.29  .09162 .97833  81.9 27.9
2022 11 26 00  12 05 42.577   +38 54 30.81  .09565 .97819  81.9 28.0
2022 11 26 01  12 05 42.827   +38 54 28.52  .09969 .97807  81.9 28.1
2022 11 26 02  12 05 43.058   +38 54 26.39  .10372 .97797  82.0 28.1
2022 11 26 03  12 05 43.274   +38 54 24.40  .10775 .97789  82.0 28.2
2022 11 26 04  12 05 43.475   +38 54 22.55  .11179 .97783  82.0 28.3
2022 11 26 05  12 05 43.664   +38 54 20.81  .11582 .97780  82.1 28.4
2022 11 26 06  12 05 43.841   +38 54 19.18  .11985 .97778  82.1 28.4
2022 11 26 07  12 05 44.009   +38 54 17.64  .12389 .97779  82.1 28.5
2022 11 26 08  12 05 44.166   +38 54 16.18  .12792 .97782  82.2 28.5
2022 11 26 09  12 05 44.316   +38 54 14.81  .13195 .97787  82.2 28.6
2022 11 26 10  12 05 44.457   +38 54 13.50  .13598 .97794  82.2 28.6
2022 11 26 11  12 05 44.592   +38 54 12.26  .14002 .97803  82.3 28.7
2022 11 26 12  12 05 44.720   +38 54 11.08  .14405 .97814  82.3 28.7
2022 11 26 13  12 05 44.842   +38 54 09.95  .14808 .97828  82.3 28.8
2022 11 26 14  12 05 44.958   +38 54 08.87  .15211 .97843  82.4 28.8
2022 11 26 15  12 05 45.070   +38 54 07.84  .15615 .97861  82.4 28.9
2022 11 26 16  12 05 45.177   +38 54 06.86  .16018 .97881  82.4 28.9
2022 11 26 17  12 05 45.279   +38 54 05.91  .16421 .97903  82.5 29.0
2022 11 26 18  12 05 45.377   +38 54 05.00  .16824 .97928  82.5 29.0
2022 11 26 19  12 05 45.471   +38 54 04.13  .17228 .97954  82.5 29.1
2022 11 26 20  12 05 45.562   +38 54 03.29  .17631 .97982  82.6 29.1
2022 11 26 21  12 05 45.649   +38 54 02.48  .18034 .98013  82.6 29.1
2022 11 26 22  12 05 45.733   +38 54 01.70  .18437 .98046  82.6 29.2
2022 11 26 23  12 05 45.814   +38 54 00.95  .18840 .98081  82.7 29.2
2022 11 27 00  12 05 45.891   +38 54 00.23  .19243 .98118  82.7 29.3
2022 11 27 01  12 05 45.966   +38 53 59.53  .19647 .98157  82.7 29.3
2022 11 27 02  12 05 46.039   +38 53 58.85  .20050 .98198  82.8 29.3
2022 11 27 03  12 05 46.109   +38 53 58.20  .20453 .98241  82.8 29.4
2022 11 27 04  12 05 46.176   +38 53 57.57  .20856 .98287  82.8 29.4
2022 11 27 05  12 05 46.241   +38 53 56.96  .21259 .98334  82.9 29.4
2022 11 27 06  12 05 46.303   +38 53 56.37  .21662 .98384  82.9 29.5
2022 11 27 07  12 05 46.364   +38 53 55.80  .22065 .98436  82.9 29.5
2022 11 27 08  12 05 46.422   +38 53 55.25  .22468 .98490  83.0 29.5
2022 11 27 09  12 05 46.478   +38 53 54.72  .22871 .98546  83.0 29.5
2022 11 27 10  12 05 46.532   +38 53 54.21  .23274 .98604  83.0 29.6
2022 11 27 11  12 05 46.585   +38 53 53.71  .23677 .98664  83.1 29.6
2022 11 27 12  12 05 46.635   +38 53 53.24  .24080 .98726  83.1 29.6